TimeEST,TemperatureF,Dew PointF,Humidity,Sea Level PressureIn,VisibilityMPH,Wind Direction,Wind SpeedMPH,Gust SpeedMPH,PrecipitationIn,Events,Conditions,WindDirDegrees,DateUTC
12:15 AM,10.2,8.4,92,30.34,10.0,Calm,Calm,-,N/A,,Clear,0,2013-02-02 05:15:00
12:35 AM,12.7,10.4,90,30.33,10.0,Calm,Calm,-,N/A,,Scattered Clouds,0,2013-02-02 05:35:00
12:55 AM,12.7,10.4,90,30.33,10.0,Calm,Calm,-,N/A,,Mostly Cloudy,0,2013-02-02 05:55:00
1:15 AM,12.7,10.4,90,30.31,10.0,SW,3.5,-,N/A,,Scattered Clouds,230,2013-02-02 06:15:00
1:35 AM,15.3,11.5,85,30.30,10.0,SSW,4.6,-,N/A,,Mostly Cloudy,200,2013-02-02 06:35:00
1:55 AM,15.3,10.2,80,30.30,10.0,SSW,6.9,-,N/A,,Overcast,200,2013-02-02 06:55:00
2:15 AM,15.3,10.2,80,30.29,10.0,SSW,4.6,-,N/A,,Overcast,200,2013-02-02 07:15:00
2:35 AM,15.3,10.2,80,30.28,10.0,SSW,6.9,-,N/A,,Overcast,200,2013-02-02 07:35:00
2:55 AM,15.6,10.6,80,30.28,10.0,South,6.9,-,N/A,,Overcast,190,2013-02-02 07:55:00
3:15 AM,16.5,11.3,80,30.28,10.0,South,5.8,-,N/A,,Overcast,190,2013-02-02 08:15:00
3:35 AM,17.6,12.6,81,30.27,10.0,SSW,5.8,-,N/A,,Overcast,200,2013-02-02 08:35:00
3:55 AM,17.6,12.4,80,30.26,10.0,South,8.1,-,N/A,,Overcast,190,2013-02-02 08:55:00
4:15 AM,17.6,12.6,81,30.25,10.0,South,9.2,-,N/A,,Overcast,190,2013-02-02 09:15:00
4:35 AM,17.6,12.7,81,30.25,10.0,South,8.1,-,N/A,,Overcast,190,2013-02-02 09:35:00
4:55 AM,17.6,12.7,81,30.25,10.0,South,6.9,-,N/A,,Overcast,190,2013-02-02 09:55:00
5:15 AM,17.6,13.5,84,30.25,7.0,SSW,4.6,-,N/A,Snow,Light Snow,200,2013-02-02 10:15:00
5:35 AM,17.6,14.4,87,30.25,5.0,SSW,4.6,-,N/A,,Overcast,200,2013-02-02 10:35:00
5:55 AM,17.6,14.7,88,30.25,5.0,SSW,4.6,-,N/A,Snow,Light Snow,210,2013-02-02 10:55:00
6:15 AM,18.1,16.2,92,30.25,4.0,SW,8.1,-,N/A,Snow,Light Snow,230,2013-02-02 11:15:00
6:35 AM,18.5,16.9,93,30.24,3.0,SSW,8.1,-,N/A,Snow,Light Snow,210,2013-02-02 11:35:00
7:15 AM,17.8,16.7,96,30.21,4.0,South,9.2,-,N/A,Snow,Light Snow,190,2013-02-02 12:15:00
7:35 AM,17.6,16.7,96,30.21,3.0,South,8.1,-,N/A,Snow,Light Snow,190,2013-02-02 12:35:00
7:55 AM,18.5,17.6,96,30.20,2.0,SSW,10.4,-,N/A,Snow,Light Snow,200,2013-02-02 12:55:00
8:15 AM,18.5,17.8,97,30.19,1.8,SSW,8.1,-,N/A,Snow,Light Snow,200,2013-02-02 13:15:00
8:35 AM,19.0,18.3,97,30.18,2.0,South,11.5,-,N/A,Snow,Light Snow,190,2013-02-02 13:35:00
8:55 AM,19.0,18.3,97,30.17,2.0,SSW,10.4,-,N/A,Snow,Light Snow,200,2013-02-02 13:55:00
9:35 AM,20.3,19.4,96,30.14,3.0,South,9.2,-,N/A,Snow,Light Snow,180,2013-02-02 14:35:00
9:55 AM,21.0,19.6,94,30.12,3.0,South,9.2,-,N/A,Snow,Light Snow,190,2013-02-02 14:55:00
10:15 AM,22.8,20.8,92,30.11,3.0,SSW,10.4,16.1,N/A,Snow,Light Snow,200,2013-02-02 15:15:00
10:35 AM,22.8,20.7,91,30.11,7.0,SSW,13.8,-,N/A,,Overcast,210,2013-02-02 15:35:00
10:55 AM,22.8,20.8,92,30.12,7.0,SSW,13.8,-,N/A,,Overcast,210,2013-02-02 15:55:00
11:15 AM,22.8,20.8,92,30.11,3.0,SSW,9.2,-,N/A,,Overcast,210,2013-02-02 16:15:00
11:35 AM,25.3,23.4,92,30.10,4.0,SSW,10.4,-,N/A,,Overcast,210,2013-02-02 16:35:00
11:55 AM,25.3,23.0,91,30.09,4.0,SSW,12.7,-,N/A,,Overcast,210,2013-02-02 16:55:00
12:15 PM,27.9,25.5,91,30.08,5.0,SSW,10.4,-,N/A,Snow,Light Snow,210,2013-02-02 17:15:00
12:35 PM,27.9,25.5,91,30.06,4.0,SSW,11.5,-,N/A,Snow,Light Snow,200,2013-02-02 17:35:00
12:55 PM,27.9,25.3,90,30.04,5.0,SW,12.7,17.3,N/A,,Overcast,230,2013-02-02 17:55:00
1:15 PM,27.9,24.4,87,30.03,7.0,SW,11.5,-,N/A,,Overcast,230,2013-02-02 18:15:00
1:35 PM,28.0,24.3,86,30.02,10.0,SW,13.8,-,N/A,,Overcast,220,2013-02-02 18:35:00
1:55 PM,30.2,26.2,85,30.01,5.0,SW,9.2,-,N/A,Snow,Light Snow,230,2013-02-02 18:55:00
2:15 PM,29.1,25.7,87,30.00,4.0,SW,12.7,-,N/A,Snow,Light Snow,230,2013-02-02 19:15:00
2:35 PM,28.2,26.1,92,30.00,1.2,WSW,9.2,-,N/A,Snow,Light Snow,240,2013-02-02 19:35:00
2:55 PM,28.4,27.3,96,30.00,1.2,SW,9.2,-,N/A,Snow,Light Snow,230,2013-02-02 19:55:00
3:15 PM,28.8,27.1,94,30.00,4.0,WSW,9.2,-,N/A,Snow,Light Snow,250,2013-02-02 20:15:00
3:35 PM,29.1,26.8,91,30.01,10.0,WSW,9.2,16.1,N/A,,Overcast,240,2013-02-02 20:35:00
3:55 PM,29.1,26.6,90,30.01,10.0,WSW,6.9,-,N/A,,Overcast,250,2013-02-02 20:55:00
4:15 PM,29.1,26.6,90,30.01,10.0,West,9.2,-,N/A,,Overcast,260,2013-02-02 21:15:00
4:35 PM,30.2,27.5,90,30.01,10.0,WSW,6.9,-,N/A,,Overcast,240,2013-02-02 21:35:00
4:55 PM,30.2,27.5,90,30.01,10.0,West,6.9,-,N/A,,Overcast,260,2013-02-02 21:55:00
5:15 PM,30.2,27.5,90,30.01,10.0,WSW,6.9,-,N/A,,Overcast,250,2013-02-02 22:15:00
5:35 PM,30.2,27.1,88,30.02,10.0,West,6.9,-,N/A,,Overcast,260,2013-02-02 22:35:00
5:55 PM,30.2,27.1,88,30.01,10.0,West,8.1,-,N/A,,Overcast,270,2013-02-02 22:55:00
6:15 PM,30.2,27.3,89,30.02,10.0,West,8.1,-,N/A,,Overcast,280,2013-02-02 23:15:00
6:35 PM,29.1,25.9,88,30.03,10.0,West,11.5,-,N/A,,Overcast,270,2013-02-02 23:35:00
6:55 PM,29.1,26.1,88,30.03,10.0,West,10.4,-,N/A,,Overcast,270,2013-02-02 23:55:00
7:15 PM,28.8,26.1,90,30.03,10.0,West,6.9,-,N/A,Snow,Light Snow,270,2013-02-03 00:15:00
7:35 PM,28.2,25.7,90,30.03,10.0,West,8.1,-,N/A,Snow,Light Snow,260,2013-02-03 00:35:00
7:55 PM,28.2,25.7,90,30.03,10.0,WSW,4.6,-,N/A,Snow,Light Snow,250,2013-02-03 00:55:00
8:15 PM,27.9,25.7,92,30.03,7.0,WSW,4.6,-,N/A,Snow,Light Snow,250,2013-02-03 01:15:00
8:35 PM,27.9,26.1,93,30.03,7.0,WSW,4.6,-,N/A,Snow,Light Snow,240,2013-02-03 01:35:00
8:55 PM,27.9,26.4,94,30.03,5.0,SW,4.6,-,N/A,Snow,Light Snow,230,2013-02-03 01:55:00
9:15 PM,27.9,26.6,95,30.03,4.0,WSW,4.6,-,N/A,Snow,Light Snow,240,2013-02-03 02:15:00
9:35 PM,27.9,26.6,95,30.03,10.0,WSW,8.1,-,N/A,,Overcast,240,2013-02-03 02:35:00
9:55 PM,27.9,26.2,94,30.03,10.0,West,8.1,-,N/A,Snow,Light Snow,260,2013-02-03 02:55:00
10:15 PM,27.9,26.1,93,30.04,10.0,West,6.9,-,N/A,Snow,Light Snow,270,2013-02-03 03:15:00
10:35 PM,27.9,25.7,92,30.03,10.0,WNW,4.6,-,N/A,,Overcast,290,2013-02-03 03:35:00
10:55 PM,27.9,25.5,91,30.03,10.0,West,4.6,-,N/A,,Overcast,270,2013-02-03 03:55:00
11:15 PM,27.9,25.5,91,30.03,10.0,West,5.8,-,N/A,,Overcast,270,2013-02-03 04:15:00
11:35 PM,27.9,25.3,90,30.03,10.0,West,4.6,-,N/A,,Overcast,280,2013-02-03 04:35:00
11:55 PM,27.9,24.8,88,30.03,10.0,West,5.8,-,N/A,,Overcast,270,2013-02-03 04:55:00